Theta_e
292 287 288 285 287 289 288 289 289 289 288 286 286 284 284 283 286 288 289 291 291 289 287 288 288 287 290 291 293 293 291 290 290 292 294 295 295 295 295 295 296 296 298 299 299 300 301 302 302 305 308 310 311 313 317 318 318 320 321 319 319 320 320 321 320 318 319 317 314 315 317 320 321 323 324 323 324 326 329 330 331 331 331 331 330 329
290 286 287 288 288 288 290 287 287 288 287 288 284 284 285 284 286 288 290 291 289 289 283 283 284 287 288 290 291 291 288 290 291 291 292 294 294 295 295 296 296 298 297 297 297 298 298 300 301 301 305 306 309 310 314 317 318 319 319 319 320 318 318 320 321 320 320 320 320 319 319 319 314 317 320 323 323 324 323 325 328 330 331 331 329 326
287 286 288 289 290 288 287 288 287 288 287 285 286 283 283 285 284 289 288 289 290 288 286 282 286 289 289 290 291 291 292 293 292 292 294 293 293 294 295 295 296 296 297 296 297 296 297 299 299 301 302 306 310 311 312 316 316 316 317 317 318 317 317 318 319 319 319 319 317 317 312 315 307 308 312 316 318 318 320 320 323 327 329 330 330 329
286 285 289 290 289 289 287 287 288 287 285 283 283 285 283 281 285 285 285 287 290 289 286 285 287 290 291 289 291 293 292 292 293 292 293 293 294 294 295 296 297 296 297 297 297 298 296 296 298 298 300 303 306 306 306 310 314 315 315 315 315 315 315 316 316 315 315 311 308 303 304 306 308 308 304 309 312 316 318 319 320 322 326 327 328 328
285 289 290 288 288 290 289 288 288 287 286 284 281 281 281 287 287 285 288 288 285 288 287 286 286 287 282 284 285 286 286 290 291 291 291 292 293 296 296 295 296 297 296 296 296 295 295 297 299 300 302 300 303 305 307 309 312 315 315 315 315 315 314 314 312 311 308 307 305 303 304 303 304 304 306 309 311 315 317 318 318 320 319 322 323 324
287 287 290 290 288 288 289 287 285 287 284 284 283 285 286 285 288 288 285 285 279 281 283 287 280 277 280 282 284 288 286 288 287 288 289 292 292 292 293 295 295 294 294 295 297 297 296 298 298 298 299 301 302 304 306 309 311 311 312 312 312 311 311 312 310 309 309 310 309 306 307 305 303 306 305 311 313 313 314 316 318 316 317 318 318 319
286 291 291 290 289 287 287 286 287 286 282 283 286 286 286 287 286 286 287 284 279 279 285 284 279 278 280 285 287 286 284 287 289 288 290 290 290 290 292 294 293 294 294 293 294 295 296 297 297 298 299 301 302 304 304 304 306 307 308 309 310 311 310 309 307 307 308 307 308 309 310 309 309 309 307 305 307 311 311 313 313 314 314 315 316 317
290 291 288 288 289 287 287 287 289 286 284 283 284 286 287 287 287 286 282 284 279 279 282 281 277 276 280 285 283 283 288 288 288 290 291 291 289 290 291 292 292 294 293 295 296 297 296 297 299 301 300 300 303 302 300 303 302 305 307 307 308 308 307 307 307 307 308 309 307 307 307 307 308 308 308 305 305 304 308 310 311 312 312 313 314 315
290 288 288 287 284 283 286 284 288 285 284 284 287 287 286 287 285 283 281 282 282 281 281 277 283 282 277 283 286 285 286 284 286 287 288 289 288 288 289 290 290 292 294 295 295 295 296 298 299 299 299 300 300 299 302 303 304 304 303 305 304 306 305 305 306 307 307 308 308 308 308 306 306 306 305 302 302 303 303 306 306 307 309 310 310 311
291 290 290 289 286 285 285 288 287 288 290 291 287 287 287 286 284 281 280 284 279 279 276 280 282 277 277 282 283 281 285 285 285 288 289 289 290 292 291 288 290 292 293 294 295 295 296 296 296 296 298 298 300 298 299 300 300 300 300 302 303 304 304 305 305 306 306 307 307 307 306 307 305 302 299 299 302 302 300 303 303 303 305 307 307 308
291 293 292 290 288 286 287 288 287 289 290 290 288 288 285 282 280 278 278 278 278 274 276 279 282 281 278 279 282 285 287 285 286 285 287 291 293 293 293 291 295 296 295 294 294 295 294 293 294 295 297 297 297 297 298 298 298 299 300 301 303 304 303 304 305 305 306 306 306 307 306 306 305 302 302 300 300 300 299 302 302 301 303 304 307 307
289 290 292 290 292 289 288 289 288 288 287 289 284 280 282 281 279 277 273 276 274 270 274 278 281 280 275 276 282 283 285 285 288 288 290 292 293 296 296 296 295 294 293 293 294 296 294 296 295 295 296 296 296 296 296 296 297 298 299 299 302 301 302 303 304 304 306 306 306 306 306 305 305 303 303 302 302 301 302 302 302 301 301 302 304 304
287 288 287 292 293 291 287 288 288 286 284 286 283 283 277 273 271 273 271 274 272 273 281 279 280 280 281 284 287 286 286 287 287 287 293 293 294 293 294 295 293 291 291 293 293 293 294 295 295 295 295 295 295 296 296 297 296 297 297 298 301 302 301 302 303 304 304 304 305 305 304 304 304 303 303 303 303 301 302 302 302 301 302 302 302 303
283 281 287 289 291 292 291 288 285 286 286 283 285 279 274 272 270 266 265 265 268 275 277 280 281 281 279 282 290 292 293 290 288 287 289 291 294 294 292 291 293 292 291 293 292 292 292 292 293 292 292 293 294 294 295 295 296 296 298 298 300 303 301 301 302 303 303 304 304 304 304 304 303 303 303 304 304 302 302 303 303 303 303 303 303 303
276 278 285 287 286 290 290 291 291 288 287 286 283 285 280 272 268 267 265 271 272 273 276 278 277 275 276 284 287 290 290 288 286 288 288 288 289 289 289 290 290 290 291 291 292 294 295 295 293 294 293 292 293 294 295 295 295 295 297 299 300 301 300 300 301 302 303 303 302 302 302 303 302 303 303 303 304 303 302 302 302 303 302 302 301 301
283 280 282 290 289 291 291 290 289 287 287 284 281 281 278 279 276 274 269 269 268 272 273 275 277 277 282 285 286 289 289 289 289 289 288 289 289 289 292 293 291 291 292 293 294 295 296 295 293 293 293 293 293 293 293 295 295 297 299 299 300 301 301 300 300 301 302 302 301 301 301 301 301 301 302 302 301 302 302 302 302 302 301 301 300 300
281 280 285 289 289 291 292 289 290 289 283 283 284 281 281 281 280 273 273 276 273 271 275 271 278 281 282 285 290 290 288 289 288 287 286 287 287 288 289 288 288 290 291 292 294 296 297 294 293 294 293 293 293 293 296 297 298 299 299 299 300 300 299 299 299 301 301 301 300 300 300 300 300 301 301 302 301 300 300 300 301 301 300 300 300 299
282 278 285 287 287 290 289 288 288 288 285 285 281 282 285 284 281 278 273 267 267 271 273 273 277 276 276 280 282 286 285 288 288 289 285 287 285 286 288 288 289 289 289 291 292 293 294 294 294 294 295 294 295 295 295 296 297 299 300 300 300 299 300 300 299 299 300 300 299 300 300 300 301 301 301 300 300 298 298 298 299 299 299 299 299 299
285 280 281 285 286 288 288 291 290 289 288 284 281 285 286 278 278 278 272 270 268 266 268 273 274 275 279 282 281 283 284 286 288 286 285 288 286 291 292 293 291 289 292 295 292 293 295 295 295 295 295 295 295 295 295 296 296 297 298 299 300 300 301 300 300 299 299 299 301 301 300 300 300 300 299 298 298 297 299 298 298 298 299 298 297 297
287 280 279 286 286 288 287 288 284 285 290 288 288 286 284 280 275 275 277 272 273 269 266 272 274 280 281 281 284 285 284 286 285 285 286 285 285 291 292 291 291 292 292 292 292 294 295 295 293 293 294 294 295 295 295 295 294 296 298 298 298 298 297 297 298 297 298 299 299 300 298 297 298 298 298 298 298 298 299 299 297 297 295 298 297 297
284 282 276 282 284 285 284 285 284 287 285 286 285 282 286 282 283 279 279 275 275 263 264 268 271 275 280 284 286 287 286 285 288 290 290 289 288 290 290 289 290 291 292 292 292 294 294 294 294 291 289 291 289 289 291 293 295 296 296 297 298 298 298 298 298 297 299 298 298 297 297 296 296 296 297 296 297 297 298 297 296 296 296 293 295 294
282 281 278 281 282 282 283 284 287 289 291 289 288 285 287 282 278 275 276 278 272 274 271 266 275 280 283 286 288 287 287 286 286 290 289 291 290 290 289 291 291 292 292 294 294 294 296 294 293 291 287 287 287 289 289 293 292 293 295 297 297 297 298 298 298 298 298 296 297 296 296 295 293 296 295 296 295 294 295 294 293 293 291 293 293 293
287 281 280 276 282 287 286 287 286 287 287 287 286 286 289 286 283 276 274 274 274 277 272 270 269 281 287 287 287 287 286 287 287 288 291 290 290 290 291 292 292 293 293 294 295 296 295 292 291 291 289 289 289 291 289 289 293 295 295 294 294 296 297 298 299 298 297 296 296 295 294 293 293 293 293 293 294 293 293 292 291 290 292 292 291 291
292 279 278 279 280 279 284 284 286 286 288 287 286 282 285 285 283 283 278 277 281 275 275 274 272 281 286 285 285 287 286 286 287 287 290 291 290 291 291 292 292 295 296 295 295 294 296 293 291 291 293 294 293 290 290 292 292 293 294 294 294 295 297 295 297 295 295 296 295 294 292 293 292 291 292 292 293 293 292 291 291 290 291 291 291 291
282 280 282 273 272 277 278 283 285 285 287 281 282 284 284 285 283 279 277 276 277 278 279 277 275 282 286 284 286 286 287 287 289 289 288 291 291 291 292 292 293 292 292 293 293 294 293 293 295 296 295 294 294 293 292 291 292 292 293 293 294 296 296 295 294 295 295 295 294 292 292 292 291 291 291 292 292 292 291 290 290 290 291 290 291 291
288 282 282 276 276 274 272 276 279 281 282 283 281 283 287 287 284 282 281 277 278 278 279 277 280 285 286 287 287 285 286 288 287 287 287 289 291 292 293 293 295 294 294 292 292 293 296 296 294 294 295 296 296 295 294 293 292 292 293 294 294 295 295 295 293 294 295 294 293 293 292 292 291 292 292 292 291 291 291 290 290 290 289 290 292 291
281 282 285 284 282 280 282 282 283 285 283 283 281 285 284 286 286 287 282 278 280 281 275 281 284 285 284 287 287 289 285 288 291 291 291 292 290 290 289 291 293 292 291 293 293 294 293 294 296 296 295 296 295 295 294 293 293 293 292 293 293 294 294 294 293 294 294 294 293 293 293 293 293 293 292 291 291 290 290 290 290 290 290 289 291 291
279 282 285 285 285 286 285 283 283 289 286 287 286 284 286 286 285 285 284 283 287 278 279 284 285 283 287 287 285 288 286 287 289 289 289 288 289 292 295 292 292 289 291 290 290 292 293 294 294 294 295 295 295 295 294 294 293 293 292 293 294 292 292 294 292 292 293 293 293 293 294 294 293 292 292 292 290 290 290 290 290 290 290 289 289 290
284 284 285 284 284 283 282 284 285 287 288 287 287 286 285 286 284 284 285 288 286 282 282 287 285 284 287 289 288 290 288 289 289 290 292 293 291 290 291 292 292 292 292 291 293 293 292 293 295 295 295 295 294 294 294 294 293 291 291 291 292 291 291 290 290 292 293 293 293 294 295 295 292 291 291 290 290 290 290 290 290 289 289 289 289 289
287 283 284 283 284 283 283 284 284 286 285 285 285 286 287 286 286 286 287 288 287 285 288 288 283 285 289 287 289 290 289 290 292 292 291 291 292 292 290 291 291 292 291 292 293 294 294 294 294 293 293 293 293 293 293 294 294 294 294 294 293 290 291 288 290 291 292 292 293 294 295 293 291 290 289 289 290 290 290 289 289 288 288 288 288 288
289 284 287 284 281 281 282 283 283 284 285 285 283 282 284 286 287 287 287 286 285 285 286 285 283 284 290 288 289 292 292 291 290 290 293 293 292 292 291 291 291 291 292 293 293 293 293 293 292 292 293 294 294 293 293 294 294 294 294 293 293 292 291 288 289 290 291 293 294 294 293 292 291 290 289 290 289 289 289 288 288 287 287 287 287 287
287 285 284 283 282 280 283 284 282 282 284 282 283 284 284 283 282 284 284 286 285 285 286 284 284 286 291 290 292 290 290 291 292 293 293 293 292 292 290 289 289 291 292 293 293 293 292 292 293 293 293 293 293 294 294 294 294 293 294 294 294 293 290 288 289 290 291 292 293 293 293 292 291 289 290 289 289 289 288 287 287 287 287 286 286 286
287 286 284 283 283 283 284 284 284 284 284 283 284 287 287 284 284 283 286 285 288 289 285 284 286 292 291 290 291 291 291 291 292 292 291 291 289 289 289 290 291 290 291 291 291 291 291 291 291 291 292 292 293 293 293 292 292 293 294 294 295 292 290 289 289 290 290 291 291 292 291 290 290 290 289 289 288 288 287 287 287 287 286 286 286 284
287 287 285 286 282 284 284 285 286 284 278 280 291 291 290 288 287 286 287 288 288 290 289 292 292 293 292 292 292 293 292 292 292 291 292 292 291 289 289 288 289 288 288 289 289 289 289 290 290 290 290 290 291 291 291 290 290 292 292 291 291 290 291 289 289 288 290 290 290 291 290 289 289 289 289 288 287 287 287 286 287 287 286 285 284 284
287 287 285 286 284 283 284 285 282 277 280 290 290 293 293 292 292 290 291 292 291 292 293 293 293 294 295 295 295 294 293 291 288 290 289 288 288 289 288 288 288 288 287 288 290 291 290 290 289 289 289 290 289 289 289 290 291 290 290 290 290 290 289 289 289 289 289 289 290 289 289 289 289 289 288 287 287 286 287 287 287 286 285 285 284 284
286 287 286 285 285 285 282 282 276 277 286 286 287 288 288 290 290 290 289 292 293 293 293 292 294 295 295 295 294 290 288 286 287 286 286 288 288 288 287 288 289 287 287 288 287 289 289 290 289 288 289 288 288 288 288 289 289 288 289 289 289 289 288 288 288 289 289 289 289 289 289 288 288 288 288 287 286 286 286 286 286 285 283 283 282 283
290 287 286 283 287 280 281 281 281 286 285 286 285 284 287 284 286 288 285 288 292 293 294 293 294 295 295 290 285 285 284 285 287 289 287 288 288 288 289 288 288 288 287 287 286 288 289 288 287 288 287 287 287 287 288 288 287 287 287 288 289 287 287 287 287 288 289 288 289 288 288 287 288 288 287 286 286 286 286 285 284 283 282 282 282 282
292 287 287 285 283 286 281 278 279 280 277 282 285 287 289 290 291 292 289 286 287 287 289 292 293 293 288 284 284 283 283 289 287 286 289 289 287 288 287 287 286 285 286 286 287 287 288 288 288 287 286 286 287 287 288 286 286 285 286 288 288 287 287 286 288 288 288 288 288 288 287 287 287 287 287 286 286 286 285 284 283 283 282 283 281 281
288 290 286 286 284 284 281 279 279 277 280 285 283 287 287 287 292 289 286 283 287 284 285 288 288 287 286 286 284 282 286 283 285 285 290 288 289 286 285 287 286 286 286 287 287 288 288 288 287 286 286 286 287 289 287 285 284 284 286 287 287 287 286 287 288 288 288 288 288 287 286 286 286 287 287 286 286 285 285 283 283 282 281 282 281 282
286 286 285 283 282 284 282 280 277 281 281 283 281 282 281 283 291 289 278 278 287 284 284 284 285 284 285 284 284 281 283 279 281 285 286 287 285 286 284 286 287 288 287 286 286 286 287 286 286 288 288 288 289 288 285 283 283 284 285 286 286 286 286 288 288 288 287 286 286 286 286 286 286 286 286 286 285 284 284 282 280 280 280 280 281 280
284 284 285 281 283 283 284 281 283 283 286 283 285 287 285 287 290 281 277 284 285 283 283 284 284 285 284 285 283 284 283 286 287 287 284 285 285 286 286 285 285 285 286 287 288 288 287 287 285 287 287 288 288 287 286 284 284 285 286 285 285 285 287 287 287 286 286 286 285 285 285 285 285 285 285 285 285 283 281 280 281 279 279 279 279 279
284 285 284 285 282 281 282 281 281 284 286 286 284 287 285 286 279 278 285 285 286 285 284 283 285 284 284 286 284 284 283 284 284 283 283 284 284 285 285 286 286 285 284 285 286 287 288 287 287 287 288 288 287 285 284 284 284 286 286 285 285 286 287 286 285 285 284 284 284 284 283 283 283 283 284 282 281 280 279 277 279 280 280 279 279 279
284 283 281 282 284 284 282 280 279 275 284 285 287 285 287 283 283 286 285 283 285 286 285 283 283 286 284 285 283 283 283 283 284 284 284 284 283 285 286 286 286 286 286 287 288 288 287 287 287 287 288 288 288 286 283 280 283 284 285 285 286 287 285 284 284 283 283 283 282 282 281 280 280 281 279 279 280 280 278 277 278 278 279 279 279 279
288 282 281 284 287 279 280 277 278 285 288 286 287 284 281 283 284 283 287 285 284 284 284 284 283 283 282 285 284 283 283 283 283 283 284 284 284 285 285 286 286 285 285 285 284 286 285 286 287 287 287 287 287 287 286 282 283 284 284 285 286 285 284 283 282 281 281 280 280 279 278 276 277 277 276 278 278 278 277 276 277 277 278 279 279 278
284 282 283 280 287 283 281 284 285 284 284 284 282 282 284 283 283 284 285 286 284 283 281 281 282 282 283 283 283 283 283 283 284 283 283 285 284 284 285 285 285 286 286 286 286 286 285 285 285 286 286 287 286 287 286 282 282 283 284 286 285 284 283 282 280 279 279 279 277 276 274 274 274 275 274 275 277 277 277 275 276 277 276 278 278 279
282 284 281 282 282 281 282 283 282 281 282 283 282 281 282 282 282 284 285 284 284 283 284 282 282 282 282 282 283 282 282 283 283 283 283 283 283 284 283 284 284 285 285 285 285 285 284 285 284 285 285 286 287 286 285 284 279 281 284 285 284 282 281 280 279 279 279 277 275 274 273 274 273 274 274 274 276 277 277 277 277 277 276 277 278 279
280 280 282 280 280 283 279 283 283 283 281 282 281 280 281 282 283 283 284 285 286 284 283 283 283 283 283 282 284 283 282 281 282 283 283 283 283 283 283 284 285 284 284 285 286 285 285 284 285 285 285 285 286 285 285 284 283 282 282 282 282 281 279 278 278 278 278 276 275 272 272 274 273 273 273 273 273 274 275 276 277 277 277 277 277 278
278 280 281 278 279 281 276 281 281 281 280 280 280 283 284 284 283 282 283 282 281 280 281 281 282 282 282 281 282 282 283 282 281 282 283 283 284 284 284 284 285 285 285 284 284 285 285 285 285 285 285 285 286 285 284 283 283 282 281 281 280 278 277 277 278 279 278 276 273 274 273 274 276 275 273 273 274 275 274 274 276 277 277 277 277 277
280 282 274 278 282 278 278 279 278 279 279 279 280 282 282 283 283 283 279 280 280 281 281 281 281 281 281 281 280 280 280 282 281 281 282 282 283 283 284 284 284 284 284 284 285 284 284 284 284 284 284 285 285 284 283 283 283 282 280 280 278 276 276 278 278 278 276 274 273 274 275 274 274 274 274 273 272 273 275 276 276 277 276 276 278 279
278 277 276 278 273 274 279 280 279 277 275 280 280 280 280 280 278 279 280 279 279 279 279 279 280 280 279 280 281 281 280 281 282 282 282 282 282 282 283 283 284 284 284 284 284 283 284 283 283 283 284 284 285 284 283 283 283 282 279 277 276 275 277 278 278 276 276 275 275 275 275 274 274 273 274 274 274 274 274 279 280 279 278 277 281 282
281 279 278 275 276 275 278 278 280 282 279 279 280 279 278 279 280 279 278 278 278 278 279 279 278 279 279 278 279 279 278 280 280 281 280 280 281 281 281 281 281 281 282 282 282 282 283 283 283 283 283 284 285 284 284 283 282 281 278 276 276 276 277 277 278 277 277 276 276 277 276 275 275 275 274 275 275 276 276 276 279 282 282 282 282 282
Wind_Speed
1 5 6 7 9 9 5 7 4 4 7 4 4 4 2 3 1 2 1 1 0 1 5 6 6 6 10 10 11 10 4 2 6 9 11 10 10 10 9 10 12 11 15 6 6 7 8 9 9 8 6 7 6 6 7 9 10 11 12 10 12 10 8 9 9 9 9 9 7 6 10 12 9 9 8 8 8 8 8 9 10 10 10 9 11 12
5 4 6 7 7 8 8 4 5 5 3 6 6 5 1 1 2 1 0 1 1 1 2 1 3 8 11 11 11 9 4 9 11 11 12 13 11 9 10 12 12 13 6 5 5 5 5 6 7 6 6 6 7 8 8 11 13 11 9 11 11 7 8 10 11 11 10 10 11 11 11 9 6 7 9 9 8 8 6 6 8 9 10 11 10 11
2 6 8 8 5 3 2 4 3 6 4 2 4 3 3 1 2 3 2 2 1 2 7 3 6 11 9 10 11 9 12 8 6 8 10 9 9 9 10 11 12 8 12 7 8 5 6 7 6 6 7 8 11 10 11 11 8 8 9 9 8 8 9 9 9 9 10 8 6 6 4 6 2 2 2 3 3 4 6 7 7 8 9 11 11 11
2 5 9 3 4 6 3 4 6 5 6 5 4 1 4 2 1 2 3 2 2 1 2 2 7 13 7 6 11 11 5 6 7 7 10 9 11 12 13 12 11 12 12 11 10 9 6 5 5 5 6 9 7 6 5 6 9 8 9 8 8 9 8 8 8 8 6 4 2 2 2 3 3 4 2 1 1 4 6 9 7 7 8 9 9 9
7 1 0 5 3 6 5 2 6 5 3 1 3 2 2 1 1 2 1 1 1 1 2 4 6 10 5 2 2 2 2 3 5 4 6 9 10 12 10 7 10 13 8 9 9 7 6 6 8 11 9 4 7 8 9 10 10 9 12 12 11 9 10 8 7 7 5 5 4 4 4 4 3 3 3 4 4 7 8 7 8 9 5 5 6 6
3 3 2 5 3 3 6 3 4 8 1 1 3 4 2 3 4 0 3 2 6 2 3 2 4 5 4 4 8 10 4 5 2 2 7 9 8 8 11 16 8 4 6 9 10 9 7 8 6 4 5 7 8 9 10 10 10 8 8 7 7 7 7 8 7 7 7 7 8 7 6 5 4 6 5 10 12 8 9 10 4 3 6 5 5 5
4 1 2 5 4 3 3 2 3 4 5 2 3 4 5 6 5 3 0 2 1 1 2 3 2 8 4 5 6 6 4 8 9 5 11 9 7 6 9 9 6 6 7 5 6 6 5 6 5 6 6 7 8 11 6 5 6 6 6 7 8 8 7 6 6 7 7 6 7 9 10 9 10 11 8 5 4 7 6 4 6 6 5 6 6 6
2 1 5 4 4 3 3 1 3 8 7 2 1 5 6 6 4 2 3 2 2 1 4 3 3 3 10 6 2 1 2 8 9 13 12 8 7 8 8 8 6 6 5 6 7 7 5 5 7 9 8 7 11 5 4 5 5 7 8 7 8 7 7 6 6 8 9 9 8 8 9 9 10 11 10 7 6 4 6 6 7 6 6 6 6 6
3 3 3 4 2 3 5 3 2 4 4 2 2 7 5 5 4 5 3 3 0 2 7 3 0 1 5 8 1 1 4 6 9 9 9 8 6 7 7 7 6 7 7 5 5 5 5 6 7 6 6 6 3 3 6 7 7 6 5 5 5 6 6 6 7 9 9 9 10 10 9 10 9 8 7 5 5 5 5 7 6 6 6 6 6 6
2 3 5 7 6 5 3 0 1 4 4 1 5 6 5 7 6 3 3 2 1 1 7 2 2 2 8 10 3 2 1 6 6 7 8 7 7 6 5 4 6 5 4 2 4 4 5 5 5 3 2 2 6 3 2 2 3 4 4 5 5 6 6 6 7 9 9 9 9 10 10 12 9 5 4 4 5 5 5 7 7 6 6 6 5 6
1 3 5 4 4 3 4 1 1 0 1 7 6 7 6 8 4 3 6 2 2 3 7 6 3 3 6 6 5 0 2 2 2 4 4 5 5 4 1 1 2 2 2 2 1 1 2 2 2 1 4 3 1 1 1 3 4 4 5 5 6 6 6 7 9 9 11 9 9 11 11 11 10 8 6 6 6 4 4 7 6 6 7 6 7 6
2 1 1 1 3 3 3 5 5 2 3 5 2 3 5 2 6 3 4 5 1 6 5 1 2 3 6 7 6 7 5 3 1 3 3 3 3 3 2 1 2 2 2 3 2 1 2 2 2 1 2 1 2 1 3 4 3 4 4 4 5 5 6 6 7 9 10 9 10 9 9 10 10 9 9 11 10 9 10 9 9 7 7 8 8 8
1 2 2 3 4 7 4 8 4 4 3 6 6 7 5 3 4 3 2 2 5 5 0 1 2 1 12 10 6 6 6 7 6 7 3 1 1 1 2 3 3 4 3 3 3 3 2 2 2 2 2 1 2 4 4 4 3 3 3 4 6 8 6 7 7 9 9 9 10 10 9 9 9 10 10 11 10 8 10 9 9 9 10 8 9 9
3 2 2 2 3 3 6 10 3 2 0 6 7 6 5 1 1 4 4 2 5 5 4 1 1 5 3 5 14 17 8 4 6 6 4 1 1 1 3 4 4 4 4 5 4 4 4 4 4 4 4 3 3 3 3 3 3 3 4 5 7 9 6 6 7 8 9 10 9 8 9 9 8 9 10 10 10 10 10 9 11 11 10 9 10 8
3 4 6 5 2 2 4 7 13 9 10 8 2 10 9 9 6 4 3 5 6 5 2 4 1 7 1 2 3 7 4 1 3 4 4 5 6 6 6 5 5 5 5 4 4 5 5 5 5 4 4 4 4 4 3 3 3 4 4 5 7 7 6 7 8 7 9 9 8 7 7 8 7 9 9 10 9 9 9 8 8 8 7 8 7 8
8 4 5 3 0 6 8 2 3 5 3 0 3 6 5 7 6 1 5 3 1 1 1 1 6 4 5 2 8 7 7 1 4 4 4 6 6 5 3 2 4 7 7 5 5 6 7 5 4 4 4 5 4 4 4 4 4 5 6 6 7 8 6 7 7 8 9 8 6 6 8 9 9 8 8 8 7 7 7 7 8 8 8 7 7 7
3 4 1 3 5 5 5 3 1 4 6 4 4 5 6 2 7 5 1 1 1 3 9 2 8 7 8 6 9 7 4 7 2 5 4 4 3 2 2 4 4 5 5 5 5 5 7 5 4 4 5 4 4 4 6 6 6 7 6 7 8 8 6 6 7 8 7 6 6 8 8 8 9 9 10 10 7 7 5 6 7 8 8 7 7 7
10 5 1 3 4 0 0 1 2 2 3 7 3 8 1 2 3 4 5 2 1 4 8 3 9 3 2 9 4 1 5 8 6 4 3 4 5 3 5 5 5 4 4 5 5 5 6 6 7 6 5 5 5 6 6 7 6 6 7 7 8 7 9 8 7 8 7 7 8 8 9 9 10 9 8 6 6 5 6 7 7 7 7 8 7 7
6 1 1 1 1 5 3 1 1 1 1 4 3 3 6 3 2 2 4 3 1 2 6 4 2 5 9 10 1 1 4 6 5 3 5 5 4 1 1 1 1 2 1 1 3 4 5 6 7 7 6 5 6 6 6 5 5 5 6 6 8 10 9 8 7 6 6 7 7 8 9 9 8 6 5 5 6 6 8 9 8 8 9 7 7 7
1 5 2 1 3 1 1 4 10 4 1 1 3 3 1 4 2 5 6 4 5 5 0 9 3 11 5 6 9 5 7 7 2 2 5 7 3 0 2 3 4 5 2 1 2 4 5 6 9 6 5 6 6 6 6 6 4 7 7 7 8 6 5 5 6 6 8 8 8 8 5 5 5 5 6 7 7 8 9 8 8 8 6 8 7 8
3 1 5 1 3 2 4 5 10 11 9 3 3 4 1 0 2 4 1 4 4 4 5 4 7 7 3 6 8 9 7 7 6 5 3 5 4 2 2 4 4 3 3 2 2 4 6 5 2 3 4 6 5 4 4 5 7 8 5 8 8 9 8 8 7 6 8 6 8 6 7 6 6 8 7 7 8 9 9 7 7 7 7 5 8 8
3 2 7 2 1 5 7 3 6 12 14 12 12 11 11 8 4 5 8 2 1 3 6 3 12 5 4 2 8 7 9 3 2 7 4 1 0 1 1 2 0 2 3 2 3 3 5 7 6 5 4 3 4 5 5 5 4 5 7 8 7 7 9 8 8 8 7 6 7 8 8 8 6 7 7 8 8 9 9 7 7 7 6 7 7 8
5 3 8 5 9 11 6 1 3 4 2 0 4 9 9 7 6 5 7 5 1 4 4 3 1 11 8 6 6 6 4 5 4 2 1 2 2 1 1 1 2 2 2 5 7 9 9 6 6 7 7 6 5 6 5 5 6 7 7 6 6 8 11 9 9 8 7 7 8 9 8 7 8 7 8 9 9 9 9 8 7 6 8 8 7 7
6 3 4 1 1 4 3 3 1 1 2 3 2 2 4 7 6 8 5 7 9 2 2 2 3 8 3 2 1 3 3 2 2 2 3 3 4 5 6 7 7 10 12 11 10 8 8 7 6 7 8 8 7 6 6 6 6 6 6 7 6 10 12 8 8 7 7 8 9 8 7 9 8 8 9 10 10 10 9 8 8 7 8 8 7 9
5 4 8 2 2 2 5 3 2 1 1 3 2 2 3 2 2 2 4 2 2 7 8 6 11 11 1 1 0 5 5 4 3 2 2 6 5 5 6 6 7 7 8 8 8 8 9 10 10 9 8 8 9 7 6 6 7 6 8 7 9 11 9 8 6 7 8 8 9 8 9 9 8 10 11 12 9 11 9 9 8 8 9 8 8 8
7 5 8 7 12 11 9 11 14 10 6 2 2 4 7 11 8 5 6 3 7 6 8 7 11 7 0 2 3 3 3 3 1 1 0 1 1 4 6 6 8 7 7 6 7 8 10 8 8 9 9 9 9 8 8 7 6 7 8 9 8 9 8 8 6 8 8 8 9 9 11 12 10 12 13 11 10 11 9 9 9 9 8 8 9 8
4 2 8 11 13 14 12 6 0 9 4 8 5 9 6 6 9 9 3 5 14 7 5 9 13 12 4 3 3 3 3 2 1 1 3 4 5 2 3 6 6 5 5 7 7 8 7 8 10 9 9 9 9 9 8 7 8 7 7 9 9 8 8 8 6 7 7 9 9 9 11 12 13 13 12 11 11 8 8 10 9 9 10 9 9 9
3 4 10 12 14 14 9 6 7 14 13 14 12 9 13 11 11 12 11 16 11 3 11 12 12 10 19 9 5 8 3 2 2 2 1 2 4 5 8 5 5 5 6 6 6 7 9 9 9 10 11 10 10 9 9 8 7 7 7 9 9 6 7 7 5 6 8 9 9 11 13 13 11 11 12 11 9 9 9 9 10 10 9 8 10 10
6 7 5 5 9 5 3 4 8 8 11 12 15 14 13 14 12 15 17 19 9 11 17 18 9 13 20 12 10 12 5 5 7 6 6 5 4 4 5 7 7 6 7 6 7 7 7 9 9 10 10 10 9 10 11 10 9 7 7 8 10 6 8 5 5 8 9 8 9 13 14 11 8 7 8 8 9 10 10 10 9 8 9 9 10 9
3 4 2 3 6 4 2 3 5 11 5 4 9 12 15 17 19 21 20 20 18 14 17 17 5 15 17 3 11 9 6 4 5 4 2 2 4 2 4 6 6 7 6 7 8 7 6 8 8 9 9 10 10 10 10 10 10 9 8 9 8 6 8 3 6 8 8 9 12 13 12 9 7 8 7 7 10 10 9 9 9 9 9 10 10 9
4 3 3 0 4 4 4 1 4 5 4 7 4 5 10 13 16 18 15 9 3 9 11 9 5 12 12 5 5 7 5 5 3 4 6 2 1 2 4 5 6 6 6 7 6 7 7 7 7 8 9 10 10 9 9 9 9 9 10 9 9 9 6 3 7 7 8 12 12 11 9 8 9 7 8 10 8 7 8 9 8 8 9 9 9 10
3 2 2 1 4 3 3 6 2 3 1 2 5 8 10 10 11 8 9 8 8 14 14 8 11 17 10 6 6 3 3 5 6 6 4 2 0 1 4 4 5 5 7 7 7 7 7 7 8 8 8 10 10 10 8 9 9 9 10 10 9 9 4 4 6 8 9 11 10 9 9 9 7 7 9 7 9 8 7 6 7 9 9 9 9 9
2 5 4 2 5 5 2 5 5 4 1 5 12 18 14 4 6 2 4 5 10 9 7 10 17 14 3 2 4 4 5 5 6 2 4 2 2 3 4 4 4 5 5 5 6 6 6 6 6 7 8 7 9 10 10 9 9 10 10 11 11 8 6 6 6 7 9 10 9 10 8 7 8 9 8 9 8 7 6 8 8 9 9 11 8 6
2 5 4 2 4 2 4 5 4 4 11 16 7 3 8 12 10 7 8 11 7 10 8 8 10 9 6 6 7 11 5 3 1 2 3 1 2 5 3 4 4 4 4 4 4 5 5 5 6 7 6 7 8 8 9 8 9 10 8 9 9 8 8 6 7 6 9 9 9 9 7 7 8 9 9 7 7 7 8 9 11 10 9 7 7 9
5 4 4 3 4 4 3 6 4 14 14 3 3 7 8 6 8 14 13 9 7 10 9 11 13 14 13 11 9 7 3 2 6 7 6 4 4 3 4 4 3 2 4 5 8 8 8 7 7 8 9 9 8 9 10 11 8 10 10 9 9 8 7 7 7 7 8 9 9 6 7 8 8 9 8 6 7 7 9 10 9 9 9 8 9 9
7 7 4 3 3 2 4 7 6 3 1 2 5 2 0 2 2 1 7 8 10 11 13 14 15 16 13 12 7 2 1 2 5 4 4 2 4 4 3 3 5 3 4 4 4 7 8 8 9 9 10 9 8 9 7 8 9 10 12 10 8 9 7 7 8 9 9 9 9 8 8 7 8 8 7 6 6 7 9 9 8 8 6 6 6 6
11 4 4 4 5 6 4 9 7 4 8 6 5 2 6 6 6 8 8 10 9 8 8 11 15 15 12 4 3 4 2 2 5 1 1 3 3 2 1 3 4 5 4 6 4 7 7 6 6 8 6 8 8 9 9 8 8 8 10 10 10 7 8 7 9 10 9 9 9 8 7 6 7 8 7 6 7 9 9 8 8 7 6 7 7 8
8 10 5 7 4 5 4 2 0 3 8 12 4 1 6 7 8 9 8 6 1 2 3 8 13 11 3 3 4 4 2 2 4 1 8 5 3 5 5 3 4 4 5 6 6 5 6 7 8 7 5 8 10 9 7 6 7 8 9 10 9 8 9 7 10 9 8 10 9 8 7 7 7 8 7 7 10 10 8 7 5 7 7 9 9 9
3 1 1 9 4 6 5 6 6 7 9 3 2 6 5 5 10 5 4 8 2 3 2 4 4 2 1 1 3 2 1 4 4 2 6 5 6 4 4 6 4 4 5 6 6 7 8 8 6 8 8 7 10 10 7 8 7 8 10 10 9 8 9 10 10 9 9 10 8 8 7 7 7 8 8 9 10 9 9 9 9 7 7 7 7 8
9 7 4 5 6 8 8 8 8 3 7 3 2 3 2 4 8 7 6 6 6 4 4 3 5 3 2 0 0 4 3 3 2 2 2 6 5 6 3 6 7 7 5 4 5 4 5 5 6 8 9 10 12 8 6 6 7 8 9 10 8 9 10 11 10 9 8 9 9 8 8 7 8 9 9 10 8 8 8 6 5 7 7 7 7 6
6 4 7 10 7 7 10 6 2 5 4 3 3 1 4 4 7 9 13 4 4 5 4 4 3 2 2 1 1 2 2 2 2 3 3 6 6 7 4 3 4 5 8 8 9 8 6 5 4 7 8 9 10 9 7 6 7 9 9 9 9 11 11 10 8 9 9 9 8 8 8 7 8 9 9 8 8 7 6 6 7 7 7 7 6 6
7 4 3 7 9 9 7 7 5 3 5 6 4 8 4 3 5 9 2 2 10 5 4 4 2 2 5 1 2 3 3 4 3 3 4 4 5 7 7 7 6 5 4 5 7 7 9 9 8 9 10 7 6 6 6 7 10 11 11 10 12 12 9 8 9 9 9 9 9 8 7 7 7 7 7 5 5 5 6 5 6 7 8 7 7 8
10 8 6 9 5 5 5 8 7 11 2 3 7 2 2 5 4 5 6 1 2 6 4 3 1 0 4 1 2 3 4 5 4 5 4 4 4 6 8 8 7 7 9 9 10 8 6 8 10 11 12 12 9 6 5 5 8 10 10 12 15 10 7 8 8 9 9 8 8 8 7 6 6 7 4 4 5 6 6 5 6 6 6 7 7 8
6 7 3 6 7 7 10 9 7 5 2 1 6 8 3 4 3 5 9 8 3 4 4 3 4 4 3 3 4 4 2 3 5 4 5 5 4 5 6 7 6 5 5 5 4 7 7 8 9 9 10 10 10 10 8 5 9 10 10 15 12 9 8 8 8 8 8 8 7 7 6 5 5 4 4 4 5 5 5 6 5 6 7 7 8 7
6 8 5 7 7 9 7 7 2 1 3 1 4 3 5 2 2 6 7 7 5 4 4 3 4 4 4 3 2 4 4 5 5 5 5 8 6 6 7 8 8 9 8 8 8 8 6 7 10 11 12 10 9 9 9 6 8 13 15 14 8 9 10 9 8 8 8 8 6 5 5 3 3 4 4 4 5 6 5 5 5 6 4 6 6 7
2 3 2 4 4 0 1 0 1 1 3 3 4 1 3 3 3 4 7 3 2 3 6 2 3 3 3 3 3 3 3 5 5 6 5 5 6 6 5 6 6 6 7 7 7 6 6 7 7 9 12 14 10 8 9 8 5 10 16 13 10 9 9 9 9 8 9 8 5 5 3 3 3 2 2 4 4 5 6 8 8 7 6 6 6 6
3 1 2 2 2 6 8 4 5 6 1 1 4 3 3 3 4 3 2 1 1 2 2 3 3 2 2 3 3 3 4 3 4 6 5 5 5 5 6 7 8 7 7 10 10 9 9 7 9 11 12 13 13 9 9 9 8 9 11 13 11 9 8 8 8 9 8 8 7 4 3 4 4 3 2 3 3 3 4 5 6 7 7 7 7 7
3 3 3 2 1 5 4 4 2 1 1 1 1 5 6 4 1 2 0 2 2 2 3 2 2 4 2 2 3 4 6 5 5 8 8 8 8 8 8 8 10 10 9 6 8 9 9 10 11 12 13 13 13 9 9 9 10 10 9 10 10 9 8 8 8 9 9 7 5 5 4 5 5 5 5 4 5 5 5 5 5 7 9 9 9 9
3 5 4 4 6 1 2 1 1 2 2 1 1 1 4 5 3 0 4 5 6 6 6 5 5 3 3 2 3 4 6 7 5 5 7 7 8 8 9 10 10 10 10 11 10 8 10 11 14 15 14 15 12 10 10 11 12 11 10 10 8 7 7 9 7 8 7 6 4 6 4 4 4 5 5 5 4 5 5 7 8 7 6 5 6 8
3 5 2 3 2 3 8 6 6 5 4 2 4 3 1 2 3 4 5 5 4 5 5 5 6 4 4 4 5 4 4 6 7 7 9 8 8 8 10 12 12 13 13 10 9 9 11 11 11 13 16 16 13 10 10 11 12 11 9 8 7 6 8 9 8 7 8 6 6 6 5 5 5 5 5 5 5 5 3 5 6 5 6 7 7 8
8 6 6 6 7 7 4 3 6 5 3 4 6 4 1 1 6 7 4 3 3 4 4 5 5 6 6 4 3 3 3 4 6 6 8 9 10 8 8 10 12 13 14 14 14 15 14 13 13 13 15 16 14 14 13 13 13 12 9 7 7 6 8 8 8 8 8 6 7 7 6 6 6 6 6 5 5 5 5 3 3 7 7 5 5 6
Wind_Direction
107 119 171 185 201 198 191 174 175 172 150 111 88 104 168 168 274 273 282 255 110 87 238 235 254 260 270 262 263 266 295 257 259 258 252 251 251 248 247 246 247 248 246 260 227 228 223 224 223 221 205 209 207 205 197 195 200 200 197 185 200 198 182 178 181 184 182 188 192 202 201 210 203 201 199 203 206 204 206 199 197 194 196 199 196 196
64 125 232 216 209 185 193 163 99 75 37 127 119 120 162 156 181 239 197 341 310 144 291 13 306 265 257 267 263 266 293 264 237 240 247 247 245 246 245 252 248 245 275 284 276 264 249 234 224 213 203 192 194 215 197 199 202 201 197 196 202 179 189 193 192 191 193 196 199 196 205 201 183 193 198 208 204 208 205 205 204 201 200 200 203 201
46 176 234 224 206 121 96 132 113 134 119 42 143 158 112 266 237 299 301 325 298 85 263 353 332 282 263 258 264 244 236 242 235 221 237 241 257 251 249 248 256 264 261 261 257 261 249 240 229 208 208 208 208 203 198 203 196 195 196 202 199 191 193 201 198 190 201 204 208 205 198 182 179 237 235 233 208 193 201 209 210 208 204 202 206 204
101 287 239 228 138 117 59 119 115 71 61 108 95 82 226 241 101 283 284 330 348 90 289 334 313 285 281 260 258 261 237 249 247 231 238 227 235 242 241 235 239 247 251 255 248 250 252 246 235 218 216 213 208 202 196 194 198 198 199 197 195 194 196 198 200 198 201 177 137 67 92 112 131 180 159 160 167 203 213 218 212 215 207 204 204 200
187 228 14 106 101 132 136 132 133 139 159 0 121 129 136 177 222 154 260 283 337 26 52 350 311 294 340 341 338 315 301 269 277 268 268 259 238 244 258 274 236 240 244 255 265 258 254 251 228 212 216 188 198 204 199 196 198 197 200 200 194 191 194 197 190 184 158 125 113 85 56 62 73 59 111 163 212 210 214 216 211 216 203 203 205 202
275 262 131 83 72 67 110 114 173 136 111 340 231 170 185 165 135 275 357 57 17 353 326 24 346 302 294 289 252 274 334 305 264 317 266 253 248 245 250 247 262 269 238 237 251 252 240 236 249 241 203 192 207 209 210 201 201 193 200 195 194 194 193 195 185 171 160 170 169 160 161 176 189 210 188 206 210 200 205 213 196 191 199 204 202 201
196 8 132 162 124 92 88 139 211 117 160 112 254 162 156 141 123 127 354 69 335 177 312 57 128 274 293 271 273 286 344 303 306 272 260 256 260 268 255 263 270 256 270 270 272 278 274 252 229 236 220 213 209 222 199 193 197 199 194 194 194 195 196 185 173 165 164 172 182 190 197 199 200 210 224 217 208 198 211 196 199 204 205 213 213 215
99 56 74 67 89 97 114 113 213 133 111 221 241 124 114 108 123 155 109 131 211 253 299 37 110 210 304 294 235 217 302 282 287 281 285 283 265 250 250 255 256 255 246 239 242 247 244 239 211 219 216 207 215 209 166 195 194 194 198 190 195 195 188 181 166 173 177 181 185 193 205 205 210 212 218 193 206 197 187 205 212 205 212 211 220 227
149 175 135 108 83 103 177 208 181 128 116 221 184 129 149 146 153 122 95 116 52 41 287 325 273 276 259 254 289 32 329 308 288 286 292 298 283 273 271 266 255 242 236 224 243 259 251 239 232 227 217 225 229 183 193 197 200 198 196 195 191 193 180 180 175 177 188 189 189 196 199 214 220 215 218 193 200 190 194 209 213 212 213 214 216 217
353 164 210 145 128 186 232 257 208 131 79 275 132 87 82 77 70 97 100 87 336 40 267 238 197 222 273 282 330 310 240 269 269 287 294 294 293 289 279 274 261 259 276 255 231 252 254 246 253 247 251 215 218 217 216 217 187 194 191 196 192 201 183 181 183 185 192 194 189 198 204 212 216 207 213 182 208 207 193 216 214 216 215 213 217 220
248 309 174 91 179 196 139 35 140 138 118 125 84 74 29 36 24 20 61 89 50 278 250 229 236 156 278 273 240 110 215 201 273 306 300 323 356 354 325 281 295 323 341 353 337 315 313 285 244 264 213 237 272 245 219 221 207 201 196 197 203 205 187 186 190 188 195 196 196 204 204 209 211 202 195 201 221 209 208 219 215 208 214 208 216 214
11 358 98 297 87 109 98 81 14 58 75 114 93 124 59 345 13 28 344 36 147 266 266 250 214 127 199 288 286 234 270 239 211 250 287 330 1 2 348 307 294 304 310 320 335 337 341 2 14 39 245 258 249 243 235 231 227 212 209 196 211 215 201 197 195 195 201 198 205 209 204 207 208 195 199 207 212 201 208 209 211 203 202 211 210 212
58 102 279 329 194 124 106 83 353 12 11 81 87 63 119 246 34 287 17 243 216 218 238 330 144 37 236 226 265 283 255 259 212 210 179 164 330 293 292 278 299 308 310 299 289 292 296 266 276 300 291 294 246 224 229 234 226 223 208 203 207 224 207 203 196 200 203 203 208 205 206 208 203 203 206 212 215 202 208 205 210 199 209 203 210 213
268 289 339 276 23 228 133 121 146 100 108 106 139 140 107 136 130 247 272 239 309 284 265 326 275 262 248 274 231 241 254 216 215 226 261 220 251 255 271 306 316 306 292 276 268 273 272 260 260 254 259 261 260 244 232 233 224 222 216 213 214 230 204 204 202 205 206 212 210 205 206 205 197 210 209 214 214 209 209 205 211 208 208 207 213 209
132 300 260 140 226 175 181 164 174 168 174 204 103 154 178 150 161 212 190 206 219 213 292 279 78 233 93 260 314 265 267 275 263 272 291 283 251 256 279 289 294 313 295 267 268 259 257 256 243 252 245 246 249 248 242 223 220 215 225 219 228 237 222 207 210 206 213 215 211 209 209 206 204 211 212 218 215 210 210 211 215 218 212 214 210 209
206 209 263 225 283 157 177 238 110 88 54 316 150 74 93 224 137 161 209 157 229 334 345 228 214 197 170 270 288 258 283 228 210 257 263 270 279 295 325 320 310 300 289 299 299 289 272 263 272 260 250 243 241 244 239 228 214 214 224 222 229 231 228 216 214 217 215 217 209 209 208 213 212 216 218 225 220 223 211 212 212 218 214 213 205 209
48 249 312 314 46 164 184 123 178 144 176 227 109 210 212 161 103 87 38 358 90 35 255 148 300 291 299 311 261 285 323 286 315 280 216 236 263 300 298 285 286 288 292 290 283 280 295 316 289 260 260 261 250 244 232 226 214 215 217 222 233 235 236 224 220 222 219 219 212 216 214 216 217 217 218 220 221 220 218 215 217 217 216 210 204 202
152 230 315 121 217 319 192 160 107 25 150 99 191 235 172 118 115 136 217 347 51 199 268 107 233 301 20 278 332 31 248 280 297 270 293 279 143 136 213 250 250 261 260 270 273 279 278 281 285 276 264 252 245 241 242 236 226 223 221 219 227 232 230 229 219 221 217 217 220 220 220 222 220 220 225 224 224 216 215 221 219 218 214 211 204 196
127 169 305 332 99 291 351 123 13 345 40 144 196 199 119 255 241 305 92 255 148 270 273 287 259 249 199 243 8 353 199 212 224 283 341 322 355 3 351 323 260 237 300 309 310 305 299 285 271 262 254 250 248 246 241 246 235 240 238 230 224 232 229 229 222 220 225 219 222 221 223 222 225 227 228 224 222 214 217 218 216 213 214 206 201 200
126 164 284 327 134 305 22 113 199 197 31 44 73 90 113 98 170 134 203 173 125 242 55 291 63 262 178 214 184 199 202 191 181 301 262 250 261 274 344 343 331 355 2 305 290 289 286 284 263 262 268 259 241 236 236 235 231 237 239 240 240 243 243 244 234 219 228 224 226 232 231 233 229 226 222 218 214 220 221 220 212 214 211 207 196 203
172 134 215 286 302 83 185 207 209 157 160 158 142 194 201 14 229 110 81 139 177 177 186 256 307 267 261 197 162 190 199 210 155 124 126 162 206 214 308 324 335 328 300 285 260 255 243 247 300 291 256 260 273 265 251 229 228 235 233 238 236 231 229 228 225 219 231 220 232 234 232 225 217 224 219 224 219 224 227 223 215 214 210 195 207 195
122 180 183 145 97 227 247 245 176 183 187 177 175 198 182 134 147 158 256 24 116 149 233 153 260 266 253 178 186 184 216 202 173 149 203 221 241 323 304 325 251 295 282 257 266 273 324 344 329 300 279 256 266 273 253 243 241 245 235 234 232 233 235 224 220 213 222 216 223 225 227 224 219 217 218 222 222 226 226 221 217 213 207 211 210 195
151 132 108 176 200 203 217 240 252 246 357 233 171 220 178 180 126 147 197 250 2 248 118 180 22 282 184 190 203 190 173 178 162 200 61 31 63 121 305 256 265 236 301 323 339 350 345 323 302 303 302 297 273 268 264 258 239 240 241 239 233 227 239 219 221 213 202 209 219 226 222 222 221 212 219 221 224 225 222 219 218 205 210 213 211 207
100 95 119 290 325 318 312 311 7 114 175 303 289 109 134 194 182 178 170 184 176 209 215 246 246 254 12 9 267 138 127 138 137 105 106 55 40 28 33 15 5 357 350 344 345 339 323 314 309 309 307 306 296 279 266 256 254 251 248 239 233 235 241 226 221 212 210 211 215 218 218 223 220 214 219 221 221 223 218 213 215 204 212 212 204 206
167 266 141 129 23 339 347 340 329 315 142 187 181 213 181 135 92 124 100 78 203 215 184 158 235 261 248 270 194 56 78 86 54 8 49 58 18 34 15 359 346 340 326 321 324 310 309 313 311 308 303 296 295 291 274 262 256 251 250 238 233 240 243 232 218 210 218 220 224 210 210 225 216 219 222 223 218 221 212 210 210 206 209 202 207 206
177 175 146 168 197 198 207 198 210 204 193 232 205 198 193 173 163 130 217 183 217 240 172 199 242 234 357 352 58 24 61 40 318 251 351 117 94 28 351 334 317 305 308 318 305 306 301 303 308 304 298 301 297 294 296 286 267 258 254 249 238 245 246 236 214 216 217 218 223 229 220 217 211 222 223 222 220 218 209 208 208 207 208 199 203 201
173 184 187 193 202 216 221 219 243 118 117 188 240 186 205 202 190 187 116 173 215 216 170 237 233 251 227 193 162 226 95 129 90 346 58 13 335 287 256 262 282 324 313 292 286 288 305 306 296 291 291 285 289 293 292 283 277 264 256 262 253 243 246 241 214 216 219 221 223 230 232 229 220 213 217 218 218 210 209 211 209 204 207 197 201 200
84 178 217 206 213 222 214 196 194 165 183 204 194 194 194 187 184 186 186 221 211 197 251 231 229 240 249 210 218 244 175 173 225 219 226 289 274 280 277 294 348 313 289 288 292 288 283 283 288 289 287 292 292 296 293 289 277 270 261 262 265 250 241 241 215 219 225 224 227 230 236 232 229 225 218 209 205 207 211 211 209 209 203 194 203 204
148 196 228 170 237 232 144 190 171 183 193 198 202 190 192 197 186 195 215 224 185 190 229 240 187 223 250 230 184 232 204 185 206 226 222 240 248 277 315 313 296 283 279 283 274 275 278 279 278 285 292 298 308 307 306 306 299 281 268 260 266 267 250 230 207 225 229 230 231 236 237 239 233 231 231 221 209 205 209 209 208 204 200 201 206 203
118 231 183 172 209 172 202 127 173 180 188 203 208 206 201 193 199 203 215 219 208 210 227 246 187 223 243 222 176 213 201 203 236 239 291 282 273 268 244 255 271 272 270 276 280 280 282 285 294 298 306 309 307 305 301 300 295 292 289 286 280 269 262 191 222 227 234 232 235 240 242 239 235 227 221 219 220 219 208 202 204 201 203 206 204 201
150 239 101 94 156 223 208 120 92 148 151 209 250 221 214 216 216 214 222 233 221 257 260 261 243 263 251 146 216 239 239 261 303 290 246 251 91 216 236 245 262 290 297 291 296 310 311 311 311 315 315 311 312 307 304 298 297 301 298 288 287 278 273 189 233 230 233 239 239 243 245 240 236 223 222 223 223 218 210 207 201 204 208 207 201 200
79 187 57 82 161 266 210 157 159 93 97 181 247 241 221 199 212 219 220 210 193 217 232 250 264 255 253 138 244 143 166 230 248 268 321 16 183 241 262 305 318 298 301 312 322 325 332 333 332 330 324 319 317 318 317 315 311 309 301 300 296 292 281 222 240 241 243 245 251 247 243 239 238 227 232 222 225 217 211 200 200 209 211 207 204 202
125 130 128 136 172 216 169 150 134 114 43 305 251 232 209 167 204 185 241 219 214 213 229 223 236 248 276 145 288 252 184 248 285 346 61 32 264 280 352 333 312 318 324 328 330 335 334 332 323 316 314 313 314 317 312 315 315 310 309 310 302 310 284 256 247 251 253 255 251 252 245 241 231 232 230 224 220 208 197 201 206 211 210 212 205 182
117 122 140 175 152 183 139 120 121 139 220 230 252 155 155 201 183 179 218 214 205 179 220 232 261 285 289 264 239 263 272 255 290 74 152 161 355 11 6 345 332 326 328 332 328 320 314 315 313 307 297 291 295 297 302 307 300 297 298 295 300 302 291 276 268 250 260 262 257 253 251 243 236 237 234 224 213 202 204 202 212 210 207 202 193 199
175 160 175 154 160 195 132 120 181 224 235 236 157 158 181 204 188 205 228 226 197 210 235 259 258 257 253 252 255 265 287 53 91 119 74 68 94 61 6 331 323 327 320 328 334 332 327 319 313 315 319 320 318 313 318 315 313 313 310 311 310 302 301 291 281 275 263 265 265 260 250 240 236 239 236 221 213 209 213 212 215 208 204 197 198 196
176 176 149 200 137 70 150 171 221 222 210 304 262 236 334 152 236 228 273 263 244 221 210 231 246 253 258 262 281 338 57 113 116 118 131 123 112 92 30 333 305 290 307 300 293 302 311 317 314 308 304 305 310 309 307 299 312 319 306 309 301 304 305 300 292 281 279 273 271 262 255 244 247 244 237 223 216 217 221 218 215 211 198 199 207 209
164 142 164 189 192 196 180 197 227 345 324 278 274 216 150 161 159 175 223 243 241 244 215 223 241 253 256 303 333 317 318 154 102 161 201 115 37 68 100 295 279 270 272 291 279 290 294 292 291 292 294 300 303 306 309 309 313 304 302 305 304 310 302 302 288 279 277 276 273 268 262 247 245 246 235 222 219 223 222 215 215 211 187 198 201 197
161 170 201 186 224 168 171 191 289 208 239 254 228 167 187 178 172 186 188 259 337 282 273 223 238 251 307 334 339 325 314 14 289 142 325 355 55 357 336 306 277 272 274 280 303 295 297 302 309 304 296 301 303 298 298 303 308 309 305 302 305 310 301 293 279 280 281 275 273 268 258 241 234 239 232 218 222 222 220 214 210 203 185 195 193 201
255 305 203 205 195 162 204 220 218 212 240 229 197 186 202 174 167 127 151 239 235 228 274 166 155 149 141 1 318 18 93 242 232 147 294 323 340 358 326 302 290 262 266 276 283 296 302 304 296 289 301 301 302 304 312 310 310 306 299 299 301 300 295 289 283 282 277 275 273 265 253 240 231 230 227 224 224 215 213 205 201 192 185 199 193 202
189 197 166 249 212 196 193 212 225 213 256 263 230 258 248 153 119 118 199 251 196 206 216 134 140 163 193 201 201 69 126 201 241 246 261 306 311 300 280 300 313 314 292 268 266 252 268 286 317 320 321 319 311 310 311 305 304 300 297 297 299 296 290 286 284 284 277 273 269 262 253 238 232 229 223 226 222 210 210 191 179 180 185 194 187 185
189 183 200 209 212 227 217 225 241 279 279 196 164 138 138 146 131 180 215 214 174 205 207 162 171 178 159 115 148 67 233 178 217 235 303 303 320 310 299 270 262 277 299 312 311 317 319 318 307 296 295 298 302 311 315 314 308 301 299 297 298 289 282 283 290 285 281 276 272 264 253 245 233 234 231 222 216 203 194 184 184 176 180 180 177 170
191 184 201 205 217 215 220 232 236 283 228 192 228 163 171 111 211 210 243 124 150 186 202 166 143 199 171 172 181 186 231 262 273 285 284 287 282 290 299 312 320 307 270 268 288 313 322 327 324 315 312 305 299 295 307 316 315 308 308 305 293 288 287 294 289 285 282 277 271 267 260 251 248 240 238 223 195 186 196 194 178 181 178 173 171 174
181 184 182 194 199 222 216 235 231 237 285 113 128 21 187 183 229 136 124 52 162 162 155 221 192 211 153 276 230 220 278 303 304 302 297 287 290 298 309 318 324 320 322 330 330 324 326 322 325 322 316 316 320 317 302 300 296 299 302 299 293 298 296 289 286 282 276 273 272 267 261 257 247 240 224 213 200 191 191 181 176 179 173 170 172 174
180 187 180 209 176 207 200 215 212 226 175 236 160 201 205 188 161 140 137 141 213 155 166 192 244 236 196 210 276 297 251 279 308 310 317 313 309 313 314 314 311 308 302 291 277 294 315 313 313 314 312 314 318 320 321 322 308 301 298 289 294 299 295 293 287 282 276 270 265 268 265 258 253 243 218 204 188 189 177 180 181 176 180 175 171 172
216 196 178 190 183 178 205 217 219 143 127 171 141 140 138 148 121 154 115 133 148 228 195 140 223 240 209 189 238 272 313 306 299 313 319 308 315 311 312 308 308 308 308 308 309 310 313 309 309 310 310 310 313 312 310 312 306 305 301 297 310 301 301 298 295 285 275 268 265 261 266 266 250 234 217 203 181 178 178 176 170 176 191 172 176 173
336 165 163 112 247 52 339 205 173 60 104 93 41 90 146 89 42 95 114 112 196 171 166 171 208 211 221 192 162 270 229 282 314 311 297 292 299 297 289 294 295 290 295 300 303 308 302 305 306 308 311 312 315 313 308 305 283 289 290 298 301 292 292 290 289 281 269 269 265 258 245 229 243 231 221 209 207 197 186 176 179 178 179 178 181 178
245 163 95 149 270 152 239 144 136 160 110 112 105 49 63 95 149 159 143 149 167 127 150 138 159 203 209 159 192 254 277 288 307 303 303 306 307 302 304 300 300 300 305 311 307 312 315 313 312 312 312 308 308 311 304 304 293 269 281 291 293 290 282 281 274 273 273 266 262 255 227 213 219 213 208 199 206 199 190 186 181 173 177 180 177 180
296 189 154 205 189 166 234 161 219 280 283 6 143 114 95 113 139 221 74 60 70 89 74 59 103 104 127 21 349 354 319 334 345 323 324 320 319 320 317 311 309 313 306 294 300 308 309 311 312 310 310 306 305 308 303 298 295 290 285 283 287 286 281 272 266 265 267 261 252 245 229 223 213 202 203 206 188 185 191 200 191 185 187 183 183 177
201 101 210 190 203 259 24 347 273 5 347 5 280 125 132 147 167 281 36 47 40 39 12 20 57 42 46 29 33 7 348 328 332 312 307 306 312 316 314 311 308 304 307 314 316 317 311 313 313 310 307 301 303 306 302 299 297 297 291 285 283 276 272 269 264 260 261 259 246 245 229 222 215 205 198 203 206 213 209 188 190 198 210 224 201 192
92 193 204 99 121 230 194 198 153 125 242 170 189 164 118 212 120 96 78 58 43 38 20 17 352 19 56 56 42 23 357 316 321 325 316 312 309 312 316 317 316 315 313 311 310 308 305 303 300 302 303 300 301 300 297 297 298 296 289 284 280 263 258 264 264 257 253 238 232 233 223 218 212 204 198 194 194 191 213 218 209 213 194 207 207 212
186 198 145 170 182 226 228 215 185 160 141 203 149 142 95 38 113 113 108 107 64 49 40 44 8 350 351 7 55 40 323 306 312 326 318 311 312 315 317 314 314 314 314 319 319 315 312 308 305 303 300 298 303 305 305 301 296 293 287 274 265 251 251 256 261 256 247 228 227 218 213 212 206 208 195 190 186 183 181 183 198 209 212 206 202 191